Wind_Speed
20 22 23 24 25 24 24 23 22 21 21 21 22 22 23 23 24 25 25 26 27 27 27 26 24 22 22 21 21 22 21 22 22 22 22 22 22 24 25 25 26 27 28 28 28 28 29 32 38 41 39 37 37 38 39 40 44 48 49 50 49 46 44 45 45 43 36 26 24 29 28 30 31 25 24 27 26 29 32 30 27 28 29 31 30
21 22 23 24 25 25 24 23 22 21 21 21 22 22 23 24 24 24 25 24 24 23 24 25 24 23 22 22 22 22 22 22 22 22 23 23 24 24 25 26 26 27 28 29 29 30 30 30 32 35 39 40 38 37 37 39 42 46 49 51 51 49 47 45 43 42 39 29 22 26 28 33 33 25 22 26 28 33 36 32 29 30 31 31 30
20 21 23 24 24 24 23 22 21 21 20 21 22 23 23 23 23 23 23 22 21 21 22 23 23 23 22 23 23 23 23 23 23 24 24 24 25 25 26 27 27 27 28 29 29 30 31 32 31 31 34 39 41 39 37 40 43 44 46 49 51 51 49 47 44 43 41 33 23 24 31 35 33 27 24 23 26 34 36 32 32 33 34 33 31
18 19 20 21 22 22 21 20 20 20 20 21 22 22 22 23 22 22 23 22 21 21 22 21 22 23 23 24 24 24 24 23 24 25 25 26 26 26 27 27 28 28 28 29 30 30 31 32 32 31 32 36 43 45 40 38 40 41 40 43 47 49 48 49 48 45 43 38 28 24 31 33 27 25 27 23 25 33 34 31 33 35 35 34 32
18 18 18 18 19 20 20 19 19 20 20 21 21 22 23 22 22 23 22 21 21 21 21 21 22 23 23 24 24 24 24 24 25 26 26 27 27 27 27 27 28 29 29 30 30 31 32 32 31 31 32 35 40 45 45 41 40 42 43 44 44 44 45 49 51 47 43 42 35 27 29 29 23 24 30 31 32 35 34 32 34 35 36 36 34
18 18 17 17 17 17 18 18 18 19 20 21 22 23 23 23 23 22 21 21 21 21 21 22 22 23 23 24 25 26 25 25 26 26 27 27 28 29 29 29 29 30 30 31 31 32 33 33 32 32 33 36 36 39 43 43 42 43 45 46 45 42 42 46 50 48 45 44 39 31 29 27 25 28 31 34 37 38 37 34 33 34 37 37 34
19 18 17 16 15 15 15 16 17 19 20 21 22 23 23 23 22 22 20 21 21 22 22 23 23 24 24 25 26 26 26 26 26 27 27 27 28 30 31 31 31 31 32 33 33 33 34 34 34 34 34 36 36 37 39 42 44 44 44 46 48 47 44 43 46 49 49 47 40 36 35 29 27 31 31 32 37 39 40 38 35 36 37 36 34
18 18 17 17 16 14 14 15 17 19 21 22 23 23 22 21 20 20 21 21 22 22 23 24 24 24 24 25 26 26 26 27 27 27 27 27 28 30 31 32 32 33 33 34 34 35 35 35 36 36 36 37 37 37 38 39 43 45 44 44 47 49 45 40 41 47 51 50 42 39 39 33 31 32 31 32 36 38 39 41 40 39 38 35 34
17 17 16 16 15 14 14 16 19 20 20 20 20 19 19 19 20 21 21 21 22 23 23 24 25 25 26 26 26 26 27 28 28 27 28 27 27 28 29 31 32 33 34 34 35 35 35 36 37 38 39 39 38 39 39 38 41 44 45 44 46 50 47 39 38 45 51 52 44 39 41 38 35 37 37 38 40 40 40 40 40 39 38 37 36
17 16 15 14 13 13 13 15 17 17 18 17 16 17 18 19 20 20 20 21 22 23 24 25 26 26 27 27 27 27 28 28 28 28 30 31 30 29 29 29 30 32 33 34 35 35 34 35 37 39 41 41 41 42 43 42 42 43 45 45 43 49 51 44 42 47 51 51 45 41 44 42 38 40 42 40 41 40 40 40 39 38 38 37 37
16 15 13 12 12 12 12 13 14 14 15 15 16 17 17 18 19 19 20 22 23 23 24 25 25 26 27 27 28 27 27 28 28 29 31 34 35 34 32 30 30 31 32 33 34 35 35 35 35 37 40 42 43 44 45 46 46 45 46 47 44 45 47 46 46 49 51 50 45 41 44 42 39 43 43 40 39 40 40 41 40 40 41 39 38
14 13 12 12 11 12 12 12 13 14 14 15 16 16 17 18 18 19 21 23 23 24 24 25 25 26 27 28 28 29 29 28 30 33 33 34 36 38 37 35 32 31 33 34 33 34 35 35 35 35 37 41 42 43 44 46 49 49 48 48 48 46 45 44 45 48 51 51 47 43 43 42 44 48 46 40 39 39 40 42 41 41 41 41 40
13 12 11 11 10 11 11 12 13 14 14 15 15 16 17 18 18 19 22 23 23 24 25 25 26 26 27 28 29 30 30 30 32 35 37 37 37 39 42 42 38 36 35 35 35 35 35 35 35 35 36 37 40 41 41 42 45 49 50 50 50 50 49 46 45 47 49 50 48 46 47 46 48 50 46 40 40 40 42 43 41 39 40 40 39
12 11 11 10 10 11 11 12 13 14 14 15 16 17 17 17 18 20 23 23 23 23 24 25 26 26 27 28 28 30 30 30 32 34 36 39 39 40 42 43 41 40 39 37 37 37 36 36 36 36 35 35 36 39 39 38 39 42 47 51 52 53 53 50 48 46 46 49 49 47 48 49 49 48 43 39 40 41 40 40 38 38 40 39 39
11 10 10 9 9 10 11 12 13 14 15 16 16 17 17 18 19 22 23 22 22 22 23 25 25 26 26 27 28 30 29 29 31 34 36 38 39 41 45 45 43 41 40 39 40 39 39 38 38 38 37 36 36 37 37 38 37 37 41 47 52 54 55 54 52 48 46 49 49 44 44 48 49 44 39 38 40 39 36 36 36 37 39 39 39
10 10 9 9 9 10 11 12 13 14 15 16 17 17 18 18 21 23 24 22 22 23 24 25 26 26 27 28 29 31 31 30 31 34 35 37 37 39 43 44 44 43 41 40 41 41 41 41 40 40 41 42 41 37 36 38 37 36 39 42 45 49 53 55 55 52 48 48 49 45 40 45 47 40 35 36 38 37 36 37 38 37 38 38 38
9 8 8 8 9 10 11 13 14 15 16 17 17 18 18 19 22 25 25 23 23 25 26 26 25 26 28 28 29 32 32 31 31 33 35 36 36 38 38 37 38 40 41 40 40 41 42 43 42 40 43 47 46 39 35 37 38 38 39 39 39 40 43 46 50 52 47 44 48 49 45 45 47 40 35 35 36 35 37 40 40 38 37 38 37
8 7 7 7 9 10 12 13 14 15 16 17 17 18 19 20 23 27 27 25 24 26 26 26 26 27 28 29 30 33 34 32 32 34 35 36 38 40 40 38 38 39 39 40 40 41 43 44 44 43 42 46 48 44 37 35 38 40 40 39 39 37 37 39 44 48 47 42 44 47 47 47 46 42 38 36 33 32 34 36 36 35 36 38 37
6 5 6 8 10 11 12 13 15 15 16 17 18 19 20 21 25 27 24 23 25 26 25 26 28 28 28 29 30 33 35 35 35 36 37 38 38 40 40 41 43 42 39 39 39 40 41 43 45 47 46 45 48 47 42 36 37 40 40 40 39 38 38 40 41 44 46 45 43 44 46 46 45 43 40 36 31 30 32 34 33 32 34 37 37
4 5 7 8 10 11 12 13 14 15 16 17 18 19 19 21 25 26 23 22 24 25 24 27 29 29 28 29 30 31 34 36 37 38 38 38 37 38 39 42 44 43 41 39 38 39 40 40 42 45 46 47 49 49 45 40 38 39 41 41 39 38 40 40 39 41 43 44 42 41 41 41 40 39 39 37 35 34 34 34 32 30 32 34 34
3 5 7 9 10 10 12 13 13 15 16 17 18 18 18 21 25 25 23 22 23 24 25 27 29 29 29 29 30 33 35 36 38 37 36 36 36 37 40 42 43 44 43 41 39 39 39 38 38 40 41 44 49 52 47 41 40 40 41 40 38 37 39 39 37 39 41 40 42 44 44 41 37 35 35 36 36 34 32 31 30 30 31 31 31
4 5 7 9 10 10 12 12 13 15 16 17 19 19 19 23 24 22 21 22 22 24 26 27 28 29 29 29 31 34 35 35 36 36 35 36 37 38 38 39 40 42 43 41 39 39 38 36 35 36 37 38 44 51 49 41 39 40 39 40 39 37 39 38 35 36 39 38 40 44 45 43 39 36 35 35 34 33 31 29 29 30 29 28 28
3 5 7 9 10 11 12 13 13 15 15 16 18 19 20 22 22 20 20 21 22 23 25 26 27 28 30 33 34 34 33 32 33 34 34 35 36 35 34 34 34 38 41 41 40 38 36 35 34 33 33 32 36 47 50 43 38 36 35 38 39 38 39 38 33 33 37 38 39 41 42 41 40 39 38 38 35 32 31 29 28 29 28 27 28
3 5 7 8 10 11 12 13 14 14 15 16 17 18 20 21 19 18 19 20 21 22 23 23 25 28 32 36 37 35 34 32 31 32 32 33 33 31 29 29 30 35 40 41 41 39 36 34 32 30 29 27 30 41 49 45 39 35 33 36 39 38 39 37 33 32 35 37 39 41 41 40 40 40 40 39 36 33 31 29 29 29 28 27 29
3 5 6 8 9 11 12 13 14 14 15 16 16 17 18 18 18 18 19 19 20 21 22 23 26 31 35 37 39 40 38 34 31 31 31 31 31 28 26 26 28 34 39 41 41 40 37 33 29 28 29 28 28 34 42 43 40 37 36 36 38 38 37 36 34 34 35 37 39 41 40 40 41 41 41 38 36 34 33 31 30 30 28 28 29
2 4 6 8 9 11 12 13 14 15 15 15 14 16 17 17 18 19 20 20 20 21 22 25 29 33 35 38 41 43 42 37 32 29 29 29 29 27 25 25 27 31 36 39 38 37 36 34 31 29 30 31 31 33 38 41 41 40 38 36 36 36 35 34 35 36 36 37 40 40 40 41 41 41 40 37 35 33 32 32 33 31 29 31 30
1 3 5 7 9 10 12 13 14 15 15 14 14 16 16 16 18 21 22 22 23 23 23 26 30 32 34 38 41 42 42 40 36 33 31 29 27 25 23 23 24 26 31 35 35 34 35 35 34 31 29 30 31 32 35 39 41 41 39 36 34 32 31 32 33 34 36 38 40 41 41 42 41 40 38 36 34 32 30 31 32 31 31 31 30
2 3 5 6 9 11 11 12 14 15 15 14 14 15 16 16 19 23 25 25 27 26 25 26 28 30 33 36 39 40 42 41 40 38 35 30 26 22 20 19 19 22 28 34 34 34 35 36 35 33 30 29 29 31 34 36 37 38 37 35 32 30 30 31 33 34 36 39 41 42 42 42 41 39 38 36 34 32 31 31 32 32 33 31 28
2 3 5 6 8 12 11 11 13 15 15 15 14 14 17 19 22 25 26 27 27 26 25 25 26 27 29 32 34 37 40 41 41 39 33 27 23 21 18 17 16 18 27 34 34 34 37 38 38 35 32 30 30 32 32 32 32 33 34 34 34 33 34 35 36 38 39 40 41 42 43 43 42 40 39 37 35 32 34 34 33 32 32 30 27
1 3 5 6 9 12 11 11 14 15 15 16 15 14 17 19 22 25 27 28 26 24 23 24 25 25 27 29 30 33 35 38 39 37 30 22 19 17 15 15 15 16 24 33 36 34 36 38 37 36 34 33 32 32 33 33 32 32 34 35 37 37 37 38 39 40 40 39 41 42 43 43 42 41 41 39 37 35 35 33 30 29 30 29 27
2 4 6 8 11 13 12 11 14 15 15 16 16 15 16 18 20 23 26 29 28 25 23 24 24 24 25 27 29 31 32 34 36 34 28 20 14 11 11 12 15 16 21 28 31 30 31 33 35 35 35 35 34 34 35 35 34 33 34 36 38 39 39 41 41 41 40 40 41 42 43 42 42 43 42 40 40 38 34 30 27 27 28 28 27
3 5 6 8 10 12 11 12 14 15 16 17 17 16 16 17 18 20 23 29 29 26 25 25 24 24 25 26 27 29 30 31 32 30 25 19 12 6 6 8 10 14 20 26 28 29 30 31 33 34 34 35 36 36 36 36 35 35 35 37 39 40 40 41 41 41 41 42 42 43 43 43 44 44 43 41 40 39 33 29 28 29 29 28 27
2 3 5 8 9 10 11 12 12 14 16 17 17 16 16 17 19 21 25 31 33 29 27 26 24 24 26 26 24 25 27 28 28 25 21 17 12 7 4 4 6 13 21 25 26 29 31 31 32 33 33 35 36 36 35 35 35 35 36 38 40 40 40 40 41 42 42 42 43 44 44 45 46 45 43 41 40 37 34 31 30 30 31 30 28
2 4 7 10 10 10 11 12 12 13 15 16 17 17 16 17 19 22 27 34 38 34 30 29 26 24 26 26 24 22 23 24 25 22 16 12 9 4 0 4 9 15 19 19 20 24 27 29 31 33 34 35 35 34 33 33 33 35 37 40 40 41 41 41 42 42 43 43 44 45 46 46 46 46 45 42 38 35 34 34 32 31 32 31 29
4 7 10 13 13 10 11 12 12 12 15 17 17 17 17 17 18 20 24 31 37 36 33 32 29 26 25 25 23 21 20 21 22 20 15 10 6 2 4 8 12 14 15 15 17 20 23 27 31 33 33 34 34 34 33 34 36 37 39 41 41 42 42 42 42 43 43 44 45 45 45 45 45 45 43 39 36 35 36 35 32 32 32 31 30
5 7 9 12 13 12 12 13 11 12 17 19 17 16 17 17 17 17 20 27 34 35 33 33 32 28 26 24 21 19 18 17 18 17 15 12 9 4 3 7 8 9 9 11 14 17 19 23 27 29 30 32 33 34 35 37 38 39 40 41 42 43 43 43 43 44 44 44 45 45 43 42 42 42 39 37 36 37 37 35 34 33 32 31 30
6 6 7 9 10 11 13 13 13 15 18 19 16 16 18 18 16 15 17 23 31 35 34 34 35 32 29 27 24 20 18 16 14 13 12 10 9 6 0 3 4 5 6 8 11 14 16 20 23 26 28 30 32 34 36 37 38 39 40 41 42 43 43 43 44 44 44 44 44 44 43 41 40 39 38 39 40 39 38 37 36 34 32 30 29
7 8 10 12 12 13 14 14 15 16 16 15 14 15 16 17 16 14 15 19 27 34 35 35 34 33 31 29 27 24 22 19 16 16 14 11 9 7 4 2 2 4 6 7 10 13 16 20 23 26 28 30 32 34 36 37 38 40 41 41 42 42 43 42 42 43 44 45 46 45 43 41 39 38 40 43 43 40 39 38 36 34 32 30 29
8 11 15 16 16 15 14 15 15 15 14 14 15 15 15 17 16 15 14 16 22 29 34 35 33 32 31 30 28 26 26 25 23 22 20 17 13 10 8 6 5 6 7 8 11 14 17 20 23 24 27 29 32 33 35 37 38 40 41 42 43 43 43 42 42 44 45 46 46 44 41 40 39 40 41 41 40 38 38 37 35 33 31 29 28
10 12 15 16 16 15 14 15 16 15 13 14 14 14 14 15 16 15 14 14 17 22 29 33 33 32 31 30 28 27 26 26 25 23 20 18 16 14 11 9 7 8 9 10 12 14 16 19 21 23 26 28 30 32 35 37 39 41 42 43 44 44 44 43 43 43 44 43 43 42 41 41 41 40 38 36 35 36 37 36 33 31 30 28 28
12 12 14 16 16 14 13 13 14 15 13 12 12 14 14 14 14 15 15 13 13 17 22 28 31 31 30 30 29 28 26 24 24 23 22 20 18 16 13 11 9 8 9 11 12 14 16 18 20 22 25 27 30 33 35 37 39 40 41 42 43 43 43 42 42 43 43 44 43 43 41 40 37 35 34 35 36 36 36 35 32 31 29 27 26
12 13 13 13 13 13 12 12 13 13 12 10 11 13 13 13 14 14 14 14 13 13 16 22 27 30 30 30 29 29 29 26 23 22 22 21 19 17 16 14 11 9 9 11 12 14 16 19 22 24 27 29 32 34 36 38 39 40 41 42 42 42 42 42 43 43 43 43 42 40 38 35 34 33 34 36 36 35 34 32 30 29 27 26 25
10 11 11 11 11 11 11 12 13 12 10 10 11 12 12 13 15 15 14 13 13 12 13 17 21 25 28 29 28 28 30 30 28 24 22 21 21 20 18 16 15 13 11 11 12 13 16 20 23 26 28 30 32 34 36 38 39 40 41 42 42 42 42 42 42 41 40 39 39 38 36 35 34 34 34 34 33 32 30 29 28 27 26 25 24
8 9 9 9 9 10 11 12 13 11 10 10 11 11 12 12 14 15 15 14 13 12 13 14 16 19 23 26 27 27 27 29 29 28 24 21 20 21 20 18 17 17 16 15 15 16 17 20 24 27 29 32 33 35 37 38 39 40 41 41 41 40 40 39 38 38 38 38 38 37 35 34 33 32 31 30 29 29 28 27 27 26 25 23 22
7 8 8 8 8 9 10 11 11 9 9 10 10 10 11 11 13 14 15 15 14 13 13 13 14 16 18 21 23 25 25 25 26 28 28 24 21 19 19 19 18 18 18 19 19 20 21 22 24 27 29 31 32 33 36 38 39 39 39 39 38 38 37 37 36 35 35 35 35 34 33 32 30 29 28 27 27 27 26 26 25 25 23 22 21
7 8 8 8 7 7 8 8 7 7 7 8 9 9 10 12 13 13 14 15 15 14 13 13 13 13 15 17 19 20 22 22 23 24 26 26 24 21 18 17 18 18 19 19 20 21 22 23 25 27 29 30 31 32 33 34 35 36 37 37 37 36 36 35 33 31 30 31 31 31 30 29 28 26 26 25 25 25 25 25 24 23 22 21 20
9 9 9 9 9 9 9 8 7 6 6 7 8 9 10 12 15 15 15 16 17 16 14 13 12 12 14 16 17 16 17 18 19 21 22 24 25 24 21 18 16 16 17 18 18 19 20 22 24 27 29 30 32 33 33 34 34 33 33 33 33 33 33 32 31 30 28 29 29 29 28 26 25 25 24 24 24 24 24 24 23 21 20 20 18
11 11 10 10 10 9 8 7 7 7 6 6 7 9 10 12 15 16 16 17 18 17 16 14 13 13 14 16 17 17 16 15 15 16 18 19 22 23 24 22 19 17 16 16 16 16 17 19 21 24 27 29 30 31 32 32 31 31 31 32 32 32 31 30 30 29 28 27 26 25 25 24 23 23 23 23 23 23 22 22 21 20 19 19 18
12 12 12 11 11 11 10 8 7 7 7 7 8 9 10 12 13 14 15 17 17 18 17 16 14 14 14 14 15 16 16 14 12 12 13 14 17 19 21 22 22 20 18 17 16 16 16 17 18 21 23 25 26 27 28 29 30 30 31 30 29 28 27 26 26 25 24 23 22 22 22 22 22 22 22 22 21 21 21 20 20 19 19 18 17
13 13 13 13 13 12 11 10 9 8 6 5 6 7 8 10 12 13 14 15 16 17 18 18 17 15 14 14 13 13 13 13 13 12 10 10 11 14 16 18 20 20 20 20 19 18 17 17 17 18 19 20 21 24 25 26 27 26 26 26 25 24 24 23 22 21 20 19 19 20 20 20 21 22 22 21 21 20 19 19 19 18 18 17 17
12 13 14 14 14 13 11 10 10 8 3 1 2 3 3 5 8 10 10 12 14 16 17 17 18 17 16 14 13 13 14 15 16 15 13 10 8 9 11 14 15 16 17 18 19 19 19 19 19 19 19 19 20 21 22 22 22 23 24 24 23 22 21 19 17 16 16 17 18 18 19 19 20 21 21 20 20 19 18 18 18 17 17 17 16
Wind_Direction
241 238 237 237 238 241 244 248 253 259 267 274 280 286 290 294 298 300 301 302 301 300 300 296 285 274 269 269 269 268 266 264 264 264 262 256 251 250 249 247 247 249 249 249 248 248 247 247 247 245 245 246 244 241 240 241 243 242 244 245 242 240 238 241 247 250 252 253 228 211 203 198 204 214 218 220 217 211 210 208 205 205 206 209 212
241 236 233 235 239 241 243 248 253 260 268 276 283 288 293 296 299 300 300 299 295 290 291 291 284 276 271 269 268 268 266 264 262 260 260 259 255 252 249 247 247 249 250 248 247 248 247 247 247 244 243 245 244 243 240 240 244 243 241 243 243 241 238 239 241 240 245 252 231 209 202 199 204 204 204 214 213 205 206 206 203 207 212 215 218
236 229 229 232 237 239 241 247 254 262 270 278 285 290 293 296 296 295 294 291 282 277 279 281 279 275 273 271 269 268 266 264 263 261 259 258 257 257 255 251 248 248 250 250 248 247 247 247 247 244 241 241 242 243 244 242 242 242 239 240 243 243 240 238 237 234 238 245 234 209 203 205 210 210 207 209 205 203 207 205 202 208 214 218 222
225 219 222 226 231 236 240 247 255 263 272 279 285 289 292 292 291 289 288 283 275 274 275 274 273 272 272 271 270 268 267 264 263 261 260 258 257 256 257 256 252 249 249 251 250 249 248 247 247 246 243 241 241 242 244 242 240 238 235 237 242 243 241 238 237 236 236 238 233 214 208 211 211 209 209 204 197 205 212 209 208 213 215 219 223
214 209 211 217 225 234 240 247 256 265 273 280 285 289 290 289 287 286 284 279 274 274 274 272 271 271 270 271 271 270 269 267 264 262 259 259 258 256 255 255 255 252 249 249 250 250 250 248 246 246 244 243 242 241 241 242 240 239 237 237 239 241 240 236 236 238 236 233 228 216 210 208 198 196 207 208 202 205 211 212 214 216 216 218 221
206 204 206 211 218 229 239 248 257 266 275 282 287 290 290 288 286 284 279 276 275 275 274 273 272 270 270 271 270 270 269 267 265 263 260 258 257 257 256 255 255 254 250 247 248 249 250 249 246 245 244 243 241 240 241 242 242 242 240 236 234 236 238 236 234 235 232 230 228 217 203 196 188 189 201 210 211 208 207 207 210 214 216 219 221
205 204 205 208 214 223 235 246 257 268 277 284 287 289 289 286 284 281 277 276 276 275 274 273 271 271 271 270 270 269 268 267 265 263 261 258 256 255 256 255 254 255 253 249 246 246 248 249 247 245 243 243 242 240 240 241 241 243 241 238 236 236 235 232 231 230 227 228 228 217 204 195 190 192 197 206 213 213 212 211 209 212 218 222 224
207 205 206 211 217 223 232 245 260 271 280 285 288 290 288 283 279 278 277 276 276 275 275 274 272 271 270 269 269 268 267 266 265 263 261 259 258 255 254 254 253 253 254 253 249 245 245 246 246 245 244 243 242 241 240 239 240 242 241 238 236 235 231 227 230 229 225 225 224 214 204 194 192 198 196 195 201 206 213 218 218 218 220 223 224
205 203 208 214 222 229 239 255 269 278 284 286 285 283 279 276 276 277 278 278 278 277 276 274 273 272 271 269 269 267 266 265 262 260 259 259 259 258 257 255 254 253 253 255 254 250 246 246 246 244 243 243 242 240 239 239 239 240 240 238 235 234 231 227 228 230 227 225 223 213 200 192 192 198 196 197 204 207 210 215 218 219 222 221 221
202 203 210 215 224 232 243 260 272 279 282 279 274 273 275 277 279 281 281 280 280 279 277 275 273 272 271 270 268 266 265 264 260 256 253 253 255 258 258 258 256 255 253 253 254 253 249 247 247 245 243 242 242 240 238 237 238 239 240 240 238 238 236 229 229 234 230 224 222 212 200 195 196 199 202 208 212 210 208 210 213 215 218 218 219
201 203 210 215 227 236 246 258 266 269 270 267 268 273 276 278 280 282 284 283 282 280 278 276 274 272 271 270 268 266 264 263 261 257 252 250 251 254 258 259 258 257 254 252 252 253 252 249 248 248 246 243 242 241 239 237 236 238 240 240 240 241 239 230 228 233 229 221 219 211 200 197 198 203 208 212 212 210 211 212 213 215 218 221 222
200 205 212 220 230 241 250 259 262 263 264 266 270 274 275 278 281 284 285 285 284 283 281 279 276 275 273 271 269 267 266 263 262 261 258 253 251 251 253 256 258 258 256 254 252 252 252 250 248 247 247 245 244 243 243 240 236 236 238 240 240 240 237 229 227 233 231 224 219 211 201 198 201 206 211 212 212 212 210 211 215 220 225 227 227
201 207 216 226 237 247 255 261 264 265 267 268 271 275 276 278 282 285 286 287 287 286 284 281 279 277 274 273 271 268 267 266 263 262 261 259 257 254 253 253 254 255 256 255 253 251 250 249 248 245 244 245 244 243 244 243 240 238 237 238 239 240 239 234 233 237 234 226 220 211 203 202 205 212 217 217 216 213 208 210 217 223 226 227 228
205 211 221 232 244 253 259 263 267 267 267 270 273 276 278 279 283 287 288 288 289 289 288 285 282 280 276 275 273 271 269 267 263 261 259 258 257 257 257 255 254 254 254 253 253 251 248 246 246 245 243 244 244 242 241 242 243 242 240 239 238 239 239 237 234 235 234 228 219 209 205 209 215 221 224 222 217 216 215 217 219 221 223 224 227
209 216 226 237 249 259 262 265 268 269 269 273 276 277 278 281 287 288 287 289 291 290 291 288 285 282 280 278 277 274 271 267 263 260 258 256 255 254 255 255 254 254 253 252 251 250 248 245 244 243 242 240 239 240 240 240 240 242 244 243 240 239 239 237 233 233 235 233 223 209 205 215 223 226 226 222 218 220 223 223 221 222 224 222 223
216 222 229 243 256 264 267 268 270 271 271 275 278 278 281 286 289 287 287 291 293 291 292 290 287 285 283 280 279 277 275 271 266 263 261 260 260 258 256 255 255 254 253 251 250 249 248 246 243 241 238 233 229 233 238 239 239 239 242 245 244 243 241 240 236 235 238 239 233 222 215 219 224 224 221 218 217 220 221 219 219 223 224 219 219
220 227 235 251 263 269 272 273 273 273 275 278 280 281 285 290 291 290 289 293 295 294 294 292 289 287 285 283 281 279 277 274 269 266 263 262 263 261 259 258 257 256 254 252 250 248 247 245 243 242 240 232 225 224 230 236 239 239 239 241 244 244 243 242 239 237 238 241 239 231 222 220 222 223 220 219 221 224 223 219 219 222 223 220 219
223 232 245 262 273 277 278 276 275 276 277 280 282 285 290 293 294 293 292 294 297 297 296 294 291 289 287 285 282 280 279 276 272 269 266 263 261 260 259 259 258 257 255 253 250 248 247 246 243 241 240 234 227 222 222 230 237 238 238 239 240 240 238 237 237 235 234 236 235 227 218 217 221 223 222 225 230 233 231 229 228 228 227 225 222
223 242 262 275 282 282 281 278 275 276 279 282 286 289 293 295 296 295 295 296 299 299 297 295 294 291 290 288 285 283 281 279 276 274 271 268 266 263 262 261 259 257 255 253 251 248 247 246 245 243 240 234 228 222 220 225 234 238 238 238 239 238 235 234 235 232 230 230 227 218 211 214 217 218 221 227 231 232 234 235 237 235 231 227 224
227 265 281 286 286 285 282 279 278 279 282 286 289 291 295 297 297 297 298 299 300 300 298 297 295 293 292 291 289 286 284 282 281 279 276 273 271 268 265 263 261 258 255 251 250 248 246 244 245 245 243 235 226 219 217 221 228 234 237 237 236 235 234 233 234 231 228 228 228 220 213 212 211 211 216 221 221 223 227 229 234 237 235 232 229
249 282 291 291 289 285 282 281 282 283 286 291 294 295 298 300 299 299 302 302 301 300 300 299 297 296 295 294 292 290 288 286 283 280 276 271 268 267 266 264 262 260 256 250 246 245 244 243 244 244 244 239 227 217 213 217 221 227 233 235 234 234 234 232 232 230 227 228 231 228 224 221 217 214 216 216 214 217 221 224 229 233 235 236 232
273 289 294 290 286 285 284 286 289 289 291 296 298 299 302 301 300 301 304 304 303 302 302 301 300 298 297 297 296 294 293 289 285 282 277 270 266 267 267 265 262 259 254 246 241 242 241 241 244 244 244 243 232 217 211 215 219 222 229 234 234 234 234 233 232 230 227 227 229 228 225 223 221 219 218 214 211 213 218 221 224 228 230 234 235
287 293 293 289 289 290 292 295 296 295 297 299 300 303 304 303 302 304 305 305 305 304 305 304 302 301 301 301 302 301 299 294 288 284 278 271 269 270 270 266 258 253 250 243 237 238 240 240 243 244 242 244 233 218 212 214 218 221 226 232 233 232 231 232 234 231 226 225 225 223 220 221 221 218 216 213 210 210 213 217 220 220 222 225 228
312 306 300 297 299 300 300 301 301 300 302 303 303 305 304 302 305 308 307 306 306 305 306 305 304 306 308 309 311 311 308 301 293 288 283 278 276 277 276 269 255 246 245 243 238 235 236 237 240 240 238 238 232 219 214 215 219 223 225 227 228 228 227 228 229 227 223 222 221 218 216 217 218 214 210 209 208 206 207 209 210 210 213 218 221
318 314 310 310 311 310 308 307 306 306 306 306 306 308 307 305 310 312 309 307 305 305 306 308 310 314 315 314 316 318 317 311 301 294 293 290 286 284 281 273 259 245 240 242 241 236 229 229 234 235 233 234 230 221 217 218 222 226 226 223 223 225 225 226 227 225 222 220 218 216 212 210 209 208 207 206 204 202 201 199 198 201 207 211 211
311 314 322 324 323 321 317 314 313 312 310 309 308 310 311 309 312 316 314 309 306 306 309 313 317 319 318 317 319 323 323 319 309 301 301 298 291 287 283 274 263 249 239 237 239 234 225 224 230 233 231 231 229 222 218 219 221 224 226 223 221 222 225 227 226 224 220 217 215 212 209 204 203 203 204 203 200 198 197 196 193 193 199 202 198
338 332 339 340 337 333 327 323 322 320 316 313 311 312 312 309 314 320 318 313 311 310 310 317 322 322 319 318 320 323 324 322 317 311 310 306 295 288 283 274 264 250 237 232 230 226 222 225 233 235 231 229 228 224 219 217 217 219 221 220 221 222 225 225 224 221 218 215 212 209 205 200 197 196 195 196 195 193 194 196 195 191 192 194 191
41 6 356 353 347 341 334 330 331 330 323 317 314 314 312 310 316 323 322 319 317 313 312 320 326 324 321 319 319 320 322 323 322 319 317 312 300 288 281 274 263 245 229 223 221 220 222 226 233 237 235 229 223 218 214 211 210 210 213 216 219 221 221 219 216 214 214 213 209 205 201 197 194 191 189 189 189 187 188 191 193 191 189 190 190
53 15 356 354 352 346 339 334 336 336 329 323 318 315 312 311 317 323 325 325 321 315 314 321 326 325 322 319 318 320 320 322 324 323 320 313 302 289 278 272 267 245 224 216 214 218 222 226 231 235 231 222 215 211 208 206 204 204 206 211 213 213 212 211 209 208 209 209 207 203 198 193 190 188 187 186 183 183 185 185 186 186 188 191 195
5 350 343 339 343 345 341 335 336 337 333 328 322 316 317 320 321 324 329 333 330 321 317 319 321 324 322 317 317 319 319 321 324 326 325 318 299 284 276 271 268 255 230 218 216 219 222 224 228 228 222 216 213 210 206 204 203 203 203 205 208 208 207 207 208 207 206 205 205 201 195 190 187 185 184 182 178 176 179 181 182 185 188 190 191
328 341 339 328 331 337 337 332 334 336 334 331 326 320 322 328 326 324 332 342 341 332 326 323 322 324 322 318 318 320 321 325 328 329 331 327 304 281 277 270 264 256 235 219 215 215 216 217 219 219 217 217 216 211 207 204 204 204 203 201 202 203 204 204 204 204 202 200 198 196 192 190 186 181 178 176 172 169 168 170 175 182 185 185 181
329 335 336 330 328 330 330 331 334 337 336 335 331 326 323 328 329 326 335 348 350 344 338 336 331 327 325 322 322 325 327 331 334 333 334 336 327 309 298 283 261 235 215 206 204 206 208 210 212 212 213 213 210 208 207 205 204 205 204 201 199 200 202 202 200 199 198 195 191 188 187 186 182 176 173 171 168 163 160 162 170 176 176 174 170
328 328 333 337 332 327 329 333 335 338 340 339 336 333 328 332 336 332 336 349 356 353 349 347 339 331 330 330 328 329 331 335 338 338 336 338 341 344 336 304 245 208 199 200 202 204 206 209 210 209 208 206 204 203 203 203 202 202 203 203 200 198 197 197 195 193 191 189 186 183 181 178 174 169 167 166 164 161 159 161 167 170 168 165 161
279 303 326 341 339 327 327 333 333 338 343 341 338 338 335 335 340 337 337 349 358 358 356 356 352 343 340 338 334 334 337 339 342 343 340 340 347 353 211 190 192 192 195 200 206 208 208 206 204 203 203 201 200 200 200 201 201 200 199 198 196 193 191 190 189 186 183 180 179 177 174 172 170 166 162 159 159 159 161 164 167 168 165 161 156
275 293 317 337 342 328 322 330 332 334 341 344 344 343 338 334 340 341 340 349 358 359 357 359 1 358 352 347 342 342 345 345 344 345 344 346 349 335 180 174 177 183 190 197 202 204 204 201 199 198 199 198 198 198 197 197 196 195 195 194 190 187 184 182 181 180 179 177 176 173 169 165 164 163 160 157 157 160 163 166 167 164 162 159 156
281 294 307 325 333 326 320 325 324 325 337 346 348 345 341 339 341 342 341 350 0 3 360 1 4 4 2 359 356 354 355 354 350 347 347 351 351 335 185 164 166 177 189 197 199 197 196 197 197 196 194 194 193 192 190 189 188 189 190 189 186 182 179 177 175 174 174 174 173 168 162 157 156 157 158 156 157 160 162 163 162 161 161 160 158
276 291 299 311 323 325 323 323 320 323 335 346 346 342 343 344 342 340 340 349 1 6 5 4 6 6 6 9 13 13 9 6 360 354 353 356 356 351 4 154 157 169 177 187 194 194 191 189 189 188 185 183 183 182 181 181 181 180 179 178 177 174 171 170 169 169 168 166 162 158 155 152 152 153 153 152 154 157 160 161 162 161 161 158 154
276 288 293 297 307 318 322 322 322 324 333 341 340 338 344 346 345 345 342 345 357 8 10 8 8 8 8 11 17 22 21 18 17 21 26 29 29 32 53 101 138 153 155 161 172 177 175 172 174 176 176 175 174 174 174 174 173 171 169 167 166 164 162 161 161 162 160 157 154 153 152 151 150 151 153 153 155 157 159 162 163 161 156 152 149
276 288 294 298 306 315 318 318 319 322 328 336 340 342 344 346 347 351 349 343 351 5 13 13 12 12 12 13 17 23 28 30 30 33 37 41 46 53 65 82 108 128 139 145 154 160 163 165 168 169 168 167 168 168 168 167 166 165 165 164 161 159 158 157 156 155 155 153 152 151 151 150 151 154 156 156 158 160 161 162 160 156 152 149 149
275 287 294 298 303 308 311 315 319 321 324 332 343 347 348 350 351 353 355 351 349 359 12 17 17 15 17 19 20 25 33 39 40 38 37 38 41 47 55 66 86 109 126 136 144 149 153 158 162 162 160 160 162 161 161 160 159 159 160 161 159 157 156 155 153 152 151 150 149 149 150 152 154 157 157 157 159 161 160 157 154 152 152 151 150
279 287 293 298 302 307 313 316 319 322 322 327 341 348 348 351 354 353 357 0 354 353 7 19 22 20 20 22 26 30 35 41 45 46 44 42 43 47 53 61 74 95 116 129 136 141 144 147 152 155 156 156 156 156 155 155 156 156 155 155 153 151 151 152 151 148 147 148 149 150 152 154 157 158 157 156 157 157 157 156 155 155 154 151 147
276 280 288 295 299 306 313 313 314 320 324 328 340 348 349 351 356 357 359 4 2 355 360 13 23 26 25 25 29 35 38 40 44 50 52 53 54 57 61 64 70 86 108 124 131 137 141 144 146 148 150 152 153 154 153 152 152 153 151 148 145 144 145 147 148 149 149 149 149 148 148 150 154 156 155 154 155 156 157 157 156 153 150 147 145
288 291 296 298 297 301 308 311 313 318 324 327 337 349 355 358 1 2 1 3 5 3 1 6 15 24 28 28 31 37 41 42 44 48 54 59 61 62 65 67 70 78 91 110 126 136 144 147 147 148 149 149 150 151 151 149 148 147 145 143 142 143 146 148 149 150 149 145 142 141 143 147 152 154 154 155 156 156 155 154 151 149 148 146 145
319 318 312 309 307 302 300 304 310 316 323 327 335 346 355 3 10 12 9 7 7 7 5 5 8 15 23 29 32 37 41 43 44 46 51 58 62 64 67 71 76 82 88 97 111 125 134 138 141 143 145 144 143 143 143 142 141 141 141 143 145 146 146 146 145 144 142 139 138 141 145 149 153 154 154 154 154 153 151 150 148 147 146 145 144
340 336 330 322 311 299 296 302 310 318 328 333 338 347 357 7 15 15 11 11 11 9 9 10 10 11 18 25 31 37 41 44 45 46 49 54 60 64 68 72 79 87 94 101 108 115 118 123 129 134 136 137 138 139 139 140 141 143 144 144 144 142 140 139 139 139 139 139 141 144 146 149 151 152 152 152 152 151 150 148 147 146 146 146 145
355 356 357 350 337 330 330 329 326 326 334 339 344 352 4 12 13 10 11 17 19 15 12 14 14 14 17 22 28 35 41 44 47 48 49 53 57 62 66 70 76 83 90 99 108 114 117 121 126 130 133 135 137 138 139 139 140 141 140 139 138 137 137 136 136 136 138 139 141 143 145 146 147 148 149 151 151 151 149 148 148 148 148 146 145
11 6 6 3 358 355 355 352 347 349 356 358 355 359 9 17 17 17 22 29 28 22 19 21 20 18 19 22 28 35 40 44 47 49 50 52 56 59 62 67 74 81 86 91 98 107 113 119 124 128 131 133 134 134 134 133 134 135 135 135 135 135 134 134 134 135 138 140 142 142 143 143 145 148 152 153 153 152 150 149 148 148 146 144 142
20 17 13 12 8 4 1 357 356 1 7 5 2 7 15 19 20 23 27 30 29 27 25 24 23 21 20 21 26 32 36 41 47 51 53 55 57 59 60 62 67 78 89 94 97 100 105 112 118 123 126 129 130 131 132 134 136 138 138 136 134 133 132 133 135 137 139 140 140 140 141 145 149 153 154 154 153 152 149 147 146 145 144 144 142
24 24 20 18 16 13 9 5 1 3 7 5 5 11 16 17 19 23 24 26 29 30 28 25 24 22 21 21 23 26 29 33 37 43 52 58 62 64 65 63 63 68 79 91 100 104 104 106 112 119 124 127 130 133 135 136 138 138 137 135 133 132 132 132 133 133 134 137 140 143 149 153 154 154 153 153 153 151 148 146 146 146 145 145 144
26 25 25 26 23 19 17 16 12 9 11 15 13 10 11 14 17 18 19 20 24 26 27 28 29 27 26 29 31 30 30 32 34 37 44 54 61 68 72 72 69 67 70 77 87 97 103 108 113 119 123 127 130 133 134 135 136 136 136 135 135 133 131 130 129 131 135 141 147 153 157 158 156 154 155 155 154 152 149 147 147 147 146 146 144
24 24 27 29 27 24 25 28 21 9 351 332 1 356 2 21 22 17 13 16 19 19 20 23 26 26 27 30 33 33 31 30 30 34 40 50 61 70 75 78 78 76 74 75 79 85 94 102 110 115 119 124 130 134 135 137 138 139 138 137 135 133 132 133 136 140 146 153 158 161 162 161 159 158 158 157 154 151 149 147 146 147 147 147 146
Height
1489 1490 1490 1491 1491 1492 1493 1493 1494 1494 1494 1494 1494 1494 1494 1493 1492 1492 1491 1490 1489 1488 1487 1487 1486 1485 1484 1484 1484 1483 1482 1482 1482 1481 1480 1480 1480 1481 1481 1481 1482 1483 1484 1484 1484 1484 1484 1484 1484 1485 1487 1487 1488 1490 1491 1492 1493 1494 1496 1497 1499 1503 1507 1509 1510 1510 1509 1511 1512 1511 1512 1513 1513 1514 1515 1515 1519 1522 1521 1523 1527 1528 1530 1532 1534
1486 1487 1488 1488 1489 1490 1490 1491 1491 1491 1491 1491 1491 1491 1490 1489 1489 1488 1487 1487 1486 1485 1484 1483 1482 1482 1481 1481 1480 1480 1479 1479 1479 1478 1478 1477 1477 1477 1477 1477 1477 1478 1479 1480 1481 1481 1481 1481 1481 1482 1483 1483 1484 1486 1487 1488 1489 1489 1491 1492 1493 1496 1501 1504 1506 1506 1506 1508 1509 1508 1509 1510 1510 1512 1514 1513 1515 1517 1518 1521 1524 1526 1527 1529 1531
1484 1485 1485 1486 1486 1487 1488 1488 1488 1488 1489 1489 1488 1488 1487 1486 1486 1485 1484 1484 1483 1482 1481 1480 1479 1478 1478 1477 1477 1476 1476 1476 1476 1475 1475 1474 1474 1474 1473 1473 1473 1474 1475 1475 1476 1477 1477 1477 1477 1478 1479 1479 1480 1481 1482 1483 1484 1485 1486 1487 1488 1490 1495 1498 1500 1502 1502 1505 1506 1505 1505 1506 1507 1510 1512 1513 1513 1514 1516 1520 1522 1522 1524 1526 1528
1482 1483 1483 1484 1484 1485 1485 1485 1486 1486 1486 1486 1485 1485 1484 1484 1483 1482 1482 1481 1480 1479 1478 1477 1476 1475 1474 1473 1473 1472 1472 1472 1472 1472 1472 1471 1471 1470 1470 1469 1469 1470 1470 1471 1472 1473 1473 1473 1474 1475 1475 1474 1474 1476 1477 1478 1480 1481 1482 1483 1483 1485 1489 1492 1494 1497 1499 1502 1504 1502 1500 1502 1506 1507 1508 1510 1511 1513 1515 1518 1519 1519 1521 1523 1525
1480 1481 1482 1482 1482 1482 1483 1483 1483 1483 1483 1483 1483 1482 1482 1481 1480 1480 1479 1478 1477 1476 1475 1474 1474 1472 1471 1470 1469 1469 1468 1468 1468 1468 1468 1468 1467 1467 1466 1466 1465 1465 1466 1467 1468 1468 1468 1469 1469 1471 1471 1470 1470 1471 1472 1474 1475 1476 1477 1478 1480 1481 1483 1485 1488 1492 1495 1497 1499 1500 1497 1498 1504 1506 1505 1505 1508 1510 1513 1515 1516 1517 1518 1519 1522
1478 1479 1480 1480 1480 1480 1480 1481 1481 1481 1481 1480 1480 1479 1479 1478 1477 1477 1476 1475 1474 1473 1472 1471 1470 1468 1467 1466 1465 1465 1464 1464 1464 1463 1464 1464 1464 1463 1463 1462 1462 1461 1461 1462 1463 1463 1464 1464 1465 1466 1466 1465 1466 1467 1468 1469 1470 1471 1472 1474 1476 1477 1478 1479 1482 1486 1489 1491 1495 1497 1495 1494 1499 1501 1501 1501 1502 1505 1508 1511 1513 1514 1514 1516 1519
1476 1477 1478 1478 1478 1478 1478 1478 1478 1478 1478 1478 1477 1477 1476 1475 1474 1474 1473 1472 1471 1470 1469 1468 1467 1465 1464 1463 1462 1461 1460 1460 1459 1459 1459 1459 1459 1459 1459 1459 1458 1457 1456 1456 1457 1458 1459 1460 1460 1461 1461 1461 1461 1462 1463 1465 1465 1466 1467 1469 1471 1473 1473 1474 1476 1479 1483 1487 1490 1492 1491 1492 1494 1496 1497 1499 1500 1501 1503 1506 1509 1510 1511 1514 1517
1473 1475 1475 1476 1476 1476 1476 1476 1476 1476 1475 1475 1474 1474 1473 1472 1471 1471 1470 1469 1468 1467 1466 1465 1464 1462 1461 1459 1458 1457 1456 1455 1455 1454 1454 1454 1454 1454 1454 1454 1454 1453 1452 1451 1451 1452 1453 1455 1455 1455 1455 1456 1457 1458 1459 1460 1460 1461 1462 1464 1466 1467 1468 1470 1471 1473 1477 1481 1484 1486 1487 1489 1490 1490 1492 1496 1496 1497 1500 1502 1504 1506 1509 1512 1514
1471 1472 1473 1473 1474 1474 1474 1474 1473 1473 1473 1472 1472 1471 1470 1469 1468 1467 1466 1465 1465 1464 1463 1462 1460 1459 1458 1456 1455 1454 1452 1451 1450 1450 1450 1450 1450 1450 1449 1449 1449 1448 1448 1447 1446 1446 1447 1449 1449 1450 1450 1451 1452 1453 1454 1455 1456 1456 1457 1459 1461 1462 1463 1466 1467 1468 1471 1475 1479 1481 1481 1482 1483 1483 1485 1488 1490 1492 1496 1499 1501 1503 1506 1509 1510
1469 1470 1471 1471 1471 1472 1471 1471 1471 1470 1470 1470 1469 1468 1467 1466 1465 1464 1463 1462 1462 1461 1459 1458 1457 1456 1454 1452 1451 1450 1448 1446 1445 1445 1445 1445 1446 1445 1445 1444 1444 1443 1443 1442 1442 1441 1442 1443 1444 1444 1445 1446 1446 1447 1448 1450 1451 1452 1453 1454 1456 1456 1458 1461 1462 1463 1466 1469 1473 1475 1475 1476 1477 1477 1479 1483 1487 1489 1491 1494 1498 1500 1502 1504 1506
1467 1468 1469 1469 1469 1469 1469 1469 1469 1468 1468 1468 1467 1466 1465 1464 1462 1461 1460 1459 1458 1457 1455 1454 1453 1451 1450 1448 1447 1445 1443 1441 1440 1440 1440 1440 1440 1440 1439 1439 1438 1438 1437 1437 1437 1436 1436 1437 1438 1439 1439 1440 1441 1442 1443 1444 1444 1446 1447 1449 1450 1451 1453 1456 1457 1457 1460 1464 1468 1469 1469 1471 1473 1473 1476 1480 1484 1486 1488 1491 1493 1495 1497 1499 1501
1465 1466 1467 1467 1468 1467 1467 1467 1467 1467 1466 1465 1464 1463 1462 1461 1460 1459 1457 1456 1454 1452 1451 1449 1448 1447 1445 1443 1442 1440 1438 1436 1436 1435 1434 1434 1435 1434 1434 1433 1432 1432 1431 1430 1431 1431 1431 1431 1432 1433 1434 1434 1435 1437 1438 1438 1438 1440 1441 1443 1445 1446 1448 1451 1452 1452 1454 1458 1462 1463 1463 1465 1467 1467 1471 1476 1479 1481 1484 1486 1488 1490 1492 1494 1496
1463 1464 1465 1465 1466 1465 1465 1465 1465 1464 1464 1463 1462 1461 1460 1458 1457 1456 1454 1452 1450 1448 1446 1445 1443 1442 1440 1438 1436 1434 1432 1431 1431 1430 1429 1429 1429 1429 1428 1427 1426 1425 1425 1425 1424 1425 1425 1426 1426 1427 1427 1429 1431 1432 1433 1433 1433 1434 1436 1438 1439 1440 1443 1446 1448 1448 1450 1453 1456 1457 1458 1459 1459 1461 1466 1472 1474 1477 1479 1481 1483 1486 1489 1491 1493
1462 1462 1463 1463 1464 1463 1463 1463 1463 1462 1461 1460 1459 1458 1457 1456 1454 1453 1451 1449 1446 1444 1441 1440 1438 1436 1435 1432 1430 1428 1426 1426 1425 1425 1424 1424 1424 1423 1422 1421 1420 1418 1418 1418 1418 1418 1419 1419 1420 1420 1421 1424 1425 1426 1427 1429 1430 1430 1431 1431 1432 1434 1437 1440 1442 1445 1447 1449 1451 1453 1454 1453 1454 1459 1465 1469 1470 1472 1474 1476 1479 1482 1485 1488 1490
1460 1461 1461 1461 1461 1461 1461 1461 1460 1460 1459 1458 1456 1455 1454 1453 1451 1450 1448 1445 1443 1440 1438 1435 1433 1431 1429 1427 1425 1422 1420 1419 1419 1418 1418 1417 1418 1417 1415 1414 1412 1411 1411 1411 1411 1411 1412 1412 1413 1414 1415 1417 1419 1421 1423 1424 1426 1426 1426 1425 1426 1428 1430 1433 1437 1440 1443 1446 1448 1450 1451 1451 1452 1458 1463 1466 1467 1469 1472 1474 1476 1478 1481 1484 1486
1459 1459 1459 1459 1460 1459 1459 1459 1458 1457 1456 1455 1454 1453 1452 1450 1448 1446 1444 1442 1439 1437 1435 1432 1429 1427 1424 1422 1420 1416 1414 1413 1413 1412 1411 1411 1411 1410 1408 1407 1405 1404 1403 1403 1404 1404 1404 1405 1405 1406 1408 1409 1410 1415 1418 1420 1421 1422 1421 1421 1421 1422 1424 1427 1431 1435 1438 1442 1445 1447 1448 1449 1451 1456 1460 1462 1464 1466 1469 1471 1473 1475 1477 1481 1483
1457 1457 1457 1458 1458 1457 1457 1457 1456 1455 1454 1453 1452 1450 1449 1447 1445 1443 1441 1439 1436 1434 1431 1428 1425 1423 1420 1418 1415 1410 1407 1407 1406 1405 1405 1405 1404 1403 1402 1401 1399 1397 1396 1396 1397 1397 1397 1397 1398 1400 1401 1401 1404 1408 1412 1415 1417 1417 1417 1418 1418 1419 1419 1421 1425 1430 1433 1437 1440 1442 1445 1447 1449 1453 1456 1457 1459 1461 1464 1467 1468 1471 1474 1476 1479
1455 1456 1456 1456 1456 1456 1455 1455 1454 1453 1452 1450 1449 1448 1446 1444 1442 1440 1437 1435 1433 1430 1427 1424 1421 1418 1415 1412 1410 1405 1401 1400 1400 1398 1398 1398 1398 1396 1395 1394 1392 1390 1390 1390 1390 1390 1389 1390 1391 1392 1393 1395 1398 1403 1406 1410 1412 1412 1413 1414 1415 1415 1415 1415 1418 1423 1428 1432 1435 1437 1440 1443 1446 1451 1453 1454 1455 1458 1460 1463 1465 1468 1470 1472 1475
1454 1454 1454 1454 1454 1454 1453 1452 1451 1451 1449 1448 1447 1445 1443 1442 1439 1437 1435 1432 1429 1426 1423 1420 1417 1414 1411 1407 1404 1400 1396 1393 1393 1391 1390 1390 1390 1389 1389 1387 1385 1384 1384 1384 1384 1383 1383 1383 1384 1384 1385 1388 1392 1397 1401 1404 1406 1407 1409 1410 1410 1411 1410 1411 1414 1418 1423 1428 1431 1433 1436 1439 1442 1446 1449 1450 1452 1454 1457 1460 1463 1465 1467 1468 1471
1452 1453 1452 1452 1452 1451 1451 1450 1449 1448 1447 1446 1445 1443 1441 1439 1436 1434 1432 1429 1426 1423 1419 1416 1413 1409 1407 1403 1399 1395 1391 1387 1385 1384 1383 1383 1382 1382 1381 1380 1378 1378 1379 1378 1378 1377 1377 1377 1377 1377 1378 1381 1385 1390 1394 1398 1400 1403 1405 1405 1406 1407 1406 1408 1412 1415 1419 1424 1428 1431 1433 1435 1438 1441 1443 1444 1447 1450 1453 1457 1461 1463 1464 1466 1469
1451 1451 1451 1450 1450 1450 1449 1448 1447 1446 1445 1444 1442 1440 1438 1436 1433 1431 1429 1426 1423 1419 1416 1413 1409 1405 1402 1399 1394 1391 1387 1383 1380 1378 1377 1376 1376 1375 1374 1372 1372 1372 1372 1372 1372 1371 1371 1371 1371 1371 1373 1375 1378 1383 1388 1392 1395 1397 1399 1401 1403 1404 1403 1405 1409 1412 1415 1420 1423 1426 1429 1430 1433 1436 1438 1441 1443 1446 1450 1455 1458 1460 1461 1464 1467
1449 1449 1449 1449 1448 1448 1447 1446 1445 1444 1443 1442 1440 1438 1436 1434 1431 1429 1426 1423 1419 1416 1413 1410 1406 1402 1398 1395 1390 1386 1382 1379 1375 1373 1371 1370 1369 1368 1367 1365 1365 1366 1365 1364 1365 1365 1366 1367 1367 1367 1369 1371 1373 1378 1383 1387 1390 1392 1394 1398 1400 1401 1401 1403 1406 1409 1412 1415 1418 1421 1424 1426 1429 1432 1435 1438 1441 1443 1447 1452 1455 1457 1459 1463 1465
1448 1448 1448 1447 1447 1446 1445 1444 1443 1442 1441 1439 1438 1436 1434 1431 1429 1427 1424 1420 1416 1413 1409 1406 1403 1398 1394 1389 1385 1381 1377 1374 1371 1368 1366 1364 1362 1361 1359 1358 1358 1358 1358 1357 1358 1360 1361 1362 1363 1364 1366 1367 1369 1373 1378 1382 1385 1388 1391 1394 1396 1397 1399 1401 1404 1406 1409 1411 1415 1418 1420 1422 1425 1428 1432 1435 1438 1441 1445 1449 1452 1454 1457 1460 1463
1446 1446 1446 1446 1445 1445 1444 1443 1442 1440 1439 1437 1436 1434 1432 1429 1427 1424 1421 1417 1413 1410 1406 1403 1399 1394 1389 1384 1379 1376 1372 1369 1366 1363 1360 1358 1356 1354 1352 1351 1350 1351 1351 1351 1352 1355 1357 1358 1360 1361 1363 1364 1366 1370 1374 1378 1381 1384 1387 1389 1391 1393 1395 1398 1400 1403 1406 1408 1412 1415 1417 1420 1422 1425 1428 1431 1435 1438 1442 1445 1449 1452 1454 1457 1461
1445 1445 1445 1445 1445 1444 1443 1442 1441 1439 1437 1436 1434 1432 1430 1427 1425 1422 1418 1414 1411 1407 1403 1399 1395 1390 1384 1379 1374 1370 1367 1363 1360 1357 1354 1352 1349 1347 1346 1344 1343 1343 1344 1345 1347 1349 1351 1354 1357 1359 1361 1362 1364 1367 1371 1374 1377 1380 1383 1385 1387 1389 1392 1394 1397 1400 1402 1406 1409 1412 1414 1417 1420 1422 1425 1427 1431 1435 1438 1441 1446 1449 1451 1455 1461
1444 1444 1444 1444 1443 1443 1442 1440 1439 1437 1436 1434 1432 1430 1428 1425 1423 1419 1415 1412 1408 1404 1400 1395 1391 1386 1381 1376 1371 1366 1361 1358 1354 1352 1349 1346 1343 1341 1339 1338 1337 1337 1337 1339 1342 1345 1347 1349 1353 1356 1358 1360 1362 1364 1367 1370 1373 1377 1380 1381 1383 1386 1389 1392 1394 1397 1400 1403 1406 1409 1411 1414 1418 1421 1423 1425 1429 1432 1434 1438 1443 1446 1449 1454 1460
1443 1443 1443 1443 1442 1442 1440 1439 1437 1435 1434 1433 1431 1428 1426 1424 1421 1417 1413 1409 1405 1401 1397 1393 1388 1383 1378 1373 1368 1363 1358 1354 1350 1347 1344 1341 1338 1335 1333 1332 1331 1331 1332 1334 1337 1341 1344 1346 1349 1352 1355 1357 1359 1361 1363 1366 1369 1373 1376 1378 1380 1383 1387 1390 1392 1395 1398 1401 1404 1406 1409 1412 1415 1419 1421 1424 1427 1430 1432 1437 1441 1445 1450 1456 1460
1442 1443 1442 1442 1442 1441 1439 1438 1436 1434 1433 1431 1429 1426 1424 1422 1419 1415 1411 1407 1403 1399 1395 1391 1387 1382 1377 1371 1366 1361 1356 1351 1347 1343 1339 1335 1332 1330 1328 1327 1327 1327 1328 1330 1333 1337 1340 1343 1345 1348 1351 1353 1355 1357 1359 1362 1365 1369 1372 1375 1378 1381 1385 1387 1390 1392 1395 1397 1400 1404 1407 1410 1414 1417 1420 1423 1426 1428 1431 1436 1440 1443 1450 1457 1461
1442 1442 1442 1441 1441 1440 1438 1437 1435 1434 1432 1430 1427 1425 1422 1419 1416 1413 1410 1406 1402 1398 1393 1389 1386 1381 1376 1371 1366 1359 1354 1349 1344 1340 1335 1331 1328 1326 1324 1324 1324 1324 1325 1328 1331 1334 1337 1339 1342 1345 1347 1349 1352 1354 1356 1359 1362 1365 1368 1371 1375 1378 1381 1383 1386 1388 1391 1394 1398 1402 1405 1408 1412 1416 1419 1422 1424 1427 1431 1435 1438 1443 1451 1458 1461
1441 1441 1441 1441 1440 1439 1437 1436 1435 1433 1431 1428 1426 1423 1420 1418 1415 1411 1408 1404 1401 1397 1393 1388 1384 1380 1375 1370 1366 1360 1354 1348 1342 1337 1332 1328 1325 1323 1322 1322 1322 1321 1322 1325 1328 1331 1334 1336 1339 1342 1344 1346 1349 1351 1353 1356 1359 1362 1365 1368 1372 1375 1378 1380 1383 1386 1389 1393 1397 1400 1403 1407 1410 1414 1417 1418 1421 1426 1431 1435 1439 1446 1453 1458 1461
1441 1441 1440 1440 1439 1438 1437 1436 1434 1432 1430 1427 1424 1422 1419 1417 1414 1411 1407 1402 1398 1395 1391 1387 1382 1378 1374 1368 1363 1359 1353 1347 1341 1335 1329 1326 1323 1322 1321 1321 1322 1322 1322 1324 1326 1329 1331 1334 1337 1339 1341 1344 1346 1349 1351 1354 1357 1360 1363 1366 1370 1372 1375 1378 1381 1384 1387 1391 1395 1399 1402 1406 1410 1414 1415 1415 1418 1425 1431 1435 1441 1449 1455 1458 1460
1440 1440 1440 1440 1439 1438 1437 1435 1433 1431 1429 1426 1424 1421 1418 1416 1413 1410 1406 1402 1397 1393 1389 1385 1380 1376 1372 1367 1361 1356 1351 1346 1340 1334 1329 1325 1323 1321 1321 1322 1322 1323 1324 1325 1326 1327 1330 1332 1334 1337 1339 1342 1344 1347 1349 1352 1355 1358 1361 1364 1367 1370 1374 1376 1380 1383 1386 1389 1393 1398 1401 1404 1409 1412 1413 1415 1418 1423 1429 1436 1444 1452 1456 1458 1460
1440 1440 1440 1439 1438 1437 1436 1434 1432 1430 1428 1425 1423 1420 1417 1415 1412 1409 1405 1401 1396 1392 1388 1383 1379 1374 1370 1365 1360 1355 1350 1345 1340 1335 1331 1327 1324 1322 1322 1322 1323 1325 1327 1327 1327 1328 1329 1331 1333 1335 1338 1340 1342 1345 1347 1350 1353 1356 1359 1363 1365 1369 1373 1376 1379 1383 1386 1389 1393 1396 1400 1404 1408 1410 1411 1415 1418 1421 1427 1438 1449 1454 1456 1458 1460
1439 1439 1438 1438 1437 1436 1435 1433 1432 1429 1427 1425 1422 1419 1417 1415 1412 1408 1404 1399 1394 1390 1386 1382 1378 1373 1368 1363 1359 1355 1350 1345 1340 1337 1333 1330 1327 1324 1323 1324 1324 1326 1328 1329 1329 1329 1330 1331 1332 1334 1336 1339 1341 1343 1346 1349 1352 1355 1358 1361 1364 1368 1372 1375 1379 1382 1385 1389 1393 1397 1400 1405 1407 1408 1410 1414 1416 1420 1429 1442 1451 1455 1456 1458 1459
1439 1438 1437 1437 1436 1436 1434 1433 1431 1428 1426 1424 1421 1419 1417 1414 1412 1409 1405 1400 1395 1389 1385 1381 1377 1372 1368 1363 1358 1354 1350 1346 1342 1338 1335 1332 1330 1328 1326 1326 1327 1328 1329 1330 1330 1330 1331 1332 1332 1334 1335 1338 1340 1343 1345 1348 1351 1354 1357 1360 1364 1367 1370 1374 1378 1382 1385 1389 1393 1397 1402 1406 1407 1408 1410 1412 1415 1422 1433 1444 1452 1456 1457 1458 1459
1439 1438 1437 1436 1436 1435 1433 1432 1430 1428 1426 1423 1421 1419 1417 1414 1412 1410 1406 1402 1397 1392 1386 1382 1377 1373 1369 1364 1359 1355 1351 1347 1343 1340 1337 1335 1333 1331 1330 1330 1330 1330 1331 1331 1331 1332 1332 1333 1333 1334 1336 1339 1341 1343 1345 1347 1350 1353 1357 1359 1362 1366 1369 1373 1378 1382 1385 1388 1393 1398 1404 1407 1409 1409 1410 1412 1418 1427 1437 1446 1452 1455 1457 1457 1459
1438 1438 1437 1436 1435 1434 1433 1432 1430 1427 1425 1422 1421 1420 1417 1414 1412 1410 1406 1403 1399 1394 1389 1383 1378 1373 1369 1365 1360 1356 1353 1349 1346 1343 1340 1337 1335 1334 1334 1333 1333 1333 1333 1333 1334 1334 1334 1334 1335 1337 1338 1340 1342 1344 1346 1348 1351 1354 1357 1361 1364 1367 1371 1375 1378 1382 1386 1389 1394 1399 1404 1407 1410 1412 1411 1414 1422 1431 1439 1446 1451 1454 1456 1457 1459
1438 1437 1436 1435 1434 1433 1432 1431 1429 1427 1425 1423 1422 1420 1417 1415 1412 1410 1407 1404 1400 1396 1391 1385 1380 1375 1371 1367 1363 1359 1355 1352 1348 1345 1342 1340 1338 1337 1336 1336 1336 1336 1336 1336 1336 1336 1336 1337 1338 1339 1340 1342 1344 1346 1348 1350 1352 1355 1358 1363 1366 1370 1373 1377 1381 1384 1388 1391 1394 1399 1403 1407 1412 1416 1416 1418 1425 1433 1440 1446 1451 1453 1455 1457 1458
1437 1436 1435 1434 1433 1433 1432 1430 1428 1427 1425 1424 1422 1420 1418 1415 1413 1411 1408 1405 1402 1398 1394 1389 1384 1380 1375 1370 1366 1362 1358 1354 1350 1348 1346 1344 1342 1340 1340 1339 1338 1338 1338 1338 1339 1339 1339 1340 1341 1342 1344 1345 1347 1349 1351 1353 1355 1358 1361 1364 1367 1371 1376 1380 1383 1388 1391 1392 1395 1400 1404 1409 1415 1420 1421 1423 1428 1435 1442 1447 1450 1452 1453 1455 1456
1436 1436 1435 1433 1432 1432 1431 1430 1429 1427 1426 1424 1422 1420 1419 1416 1414 1412 1410 1407 1404 1401 1397 1393 1388 1384 1379 1375 1370 1366 1362 1359 1356 1353 1351 1348 1346 1345 1344 1343 1342 1342 1342 1342 1343 1343 1343 1343 1344 1346 1347 1349 1351 1353 1355 1357 1359 1361 1364 1367 1369 1373 1378 1382 1387 1391 1394 1395 1397 1401 1406 1412 1418 1422 1424 1427 1432 1438 1442 1446 1448 1450 1452 1453 1455
1436 1436 1435 1433 1432 1432 1431 1430 1429 1427 1425 1424 1422 1421 1419 1417 1415 1413 1411 1409 1406 1403 1400 1397 1393 1388 1384 1380 1376 1372 1368 1365 1362 1359 1356 1354 1352 1350 1349 1348 1347 1347 1347 1347 1347 1347 1347 1348 1349 1350 1352 1353 1355 1357 1359 1361 1363 1365 1368 1371 1374 1377 1381 1386 1391 1395 1397 1398 1400 1404 1409 1415 1421 1425 1427 1430 1435 1439 1442 1445 1447 1449 1452 1454 1456
1435 1435 1434 1433 1432 1431 1431 1430 1428 1427 1426 1424 1423 1421 1420 1418 1416 1414 1412 1410 1408 1405 1403 1400 1397 1393 1389 1385 1381 1377 1373 1370 1368 1365 1362 1360 1358 1356 1355 1354 1353 1352 1352 1352 1352 1352 1352 1352 1353 1355 1356 1358 1359 1361 1363 1365 1367 1369 1372 1375 1379 1382 1386 1390 1395 1398 1400 1402 1403 1407 1412 1418 1424 1427 1430 1433 1436 1439 1442 1444 1447 1450 1452 1454 1456
1434 1433 1433 1432 1432 1431 1431 1429 1427 1426 1426 1424 1423 1422 1420 1419 1417 1416 1414 1412 1410 1407 1405 1402 1399 1397 1394 1390 1387 1383 1379 1376 1373 1370 1368 1366 1365 1363 1361 1360 1358 1358 1357 1357 1357 1357 1357 1357 1357 1359 1360 1362 1364 1365 1367 1369 1372 1374 1376 1380 1384 1388 1392 1395 1398 1401 1403 1404 1406 1410 1416 1421 1426 1430 1433 1435 1437 1440 1443 1445 1448 1450 1452 1454 1456
1434 1433 1433 1432 1431 1430 1430 1429 1427 1426 1425 1424 1423 1422 1421 1420 1419 1417 1415 1413 1411 1409 1407 1404 1402 1399 1397 1394 1391 1388 1385 1382 1379 1376 1374 1372 1370 1369 1367 1366 1365 1364 1363 1363 1363 1363 1363 1362 1363 1364 1365 1368 1369 1370 1372 1374 1377 1380 1383 1387 1391 1394 1397 1399 1401 1404 1405 1407 1410 1415 1420 1425 1428 1432 1434 1436 1439 1442 1444 1446 1448 1450 1452 1454 1456
1434 1434 1433 1432 1431 1430 1429 1428 1427 1426 1425 1425 1424 1423 1423 1422 1420 1419 1417 1415 1413 1411 1409 1407 1404 1402 1400 1398 1395 1393 1390 1388 1385 1383 1380 1378 1376 1375 1374 1373 1372 1371 1370 1370 1369 1369 1369 1369 1370 1371 1372 1374 1375 1377 1378 1380 1383 1386 1389 1392 1395 1398 1401 1403 1405 1408 1410 1412 1416 1419 1424 1427 1431 1434 1436 1438 1441 1443 1445 1446 1449 1450 1452 1454 1457
1435 1434 1433 1432 1430 1429 1428 1427 1427 1427 1427 1426 1425 1424 1424 1423 1421 1420 1418 1416 1414 1413 1411 1409 1407 1405 1403 1401 1399 1397 1395 1393 1391 1389 1386 1384 1382 1381 1380 1379 1378 1377 1376 1376 1375 1375 1375 1376 1376 1377 1378 1379 1381 1383 1385 1387 1390 1392 1394 1397 1399 1402 1405 1407 1410 1412 1415 1418 1421 1424 1427 1430 1433 1436 1438 1440 1442 1444 1446 1448 1449 1451 1453 1455 1457
1435 1435 1434 1433 1431 1430 1429 1428 1428 1427 1427 1427 1426 1425 1425 1424 1422 1420 1418 1417 1416 1415 1413 1411 1409 1408 1406 1404 1402 1400 1399 1397 1396 1394 1392 1390 1388 1387 1386 1384 1383 1382 1382 1382 1381 1381 1381 1381 1382 1382 1384 1385 1387 1389 1391 1394 1396 1399 1401 1403 1405 1407 1409 1411 1413 1416 1419 1422 1425 1427 1430 1433 1435 1438 1440 1442 1443 1445 1447 1449 1450 1452 1454 1456 1458
1436 1436 1435 1434 1433 1432 1431 1430 1429 1428 1428 1428 1427 1426 1426 1425 1423 1421 1420 1419 1418 1416 1415 1413 1412 1410 1408 1406 1405 1403 1402 1401 1400 1399 1398 1396 1394 1393 1392 1390 1389 1388 1387 1387 1387 1387 1387 1387 1388 1389 1390 1391 1393 1395 1397 1399 1402 1404 1406 1408 1410 1412 1413 1414 1416 1419 1422 1425 1428 1430 1433 1435 1438 1440 1441 1443 1445 1447 1448 1450 1451 1453 1455 1457 1458
1437 1437 1436 1435 1434 1433 1432 1431 1430 1429 1429 1429 1428 1427 1427 1426 1424 1423 1422 1420 1419 1418 1417 1415 1414 1412 1411 1409 1408 1406 1405 1404 1403 1402 1402 1401 1400 1399 1397 1396 1395 1394 1393 1392 1392 1392 1392 1393 1394 1395 1396 1398 1399 1401 1403 1404 1406 1408 1410 1412 1414 1415 1417 1419 1420 1423 1425 1428 1431 1433 1436 1438 1440 1442 1444 1445 1447 1448 1450 1451 1452 1454 1456 1457 1459
1438 1438 1437 1436 1435 1434 1433 1432 1431 1430 1430 1429 1428 1428 1427 1426 1425 1425 1424 1422 1421 1420 1419 1417 1417 1416 1414 1413 1412 1410 1409 1408 1407 1405 1405 1404 1404 1403 1402 1401 1401 1400 1399 1398 1398 1398 1398 1398 1399 1400 1402 1403 1404 1406 1408 1409 1411 1413 1414 1416 1417 1418 1420 1422 1424 1426 1429 1431 1433 1436 1438 1440 1442 1444 1445 1447 1448 1449 1451 1452 1454 1455 1457 1458 1460
1440 1439 1438 1437 1436 1435 1433 1432 1432 1431 1430 1429 1429 1428 1428 1427 1426 1426 1425 1424 1423 1422 1421 1420 1419 1418 1417 1416 1415 1414 1412 1411 1410 1409 1408 1407 1406 1406 1406 1406 1405 1405 1405 1404 1404 1404 1404 1404 1404 1405 1406 1407 1409 1411 1412 1414 1415 1416 1418 1419 1420 1421 1423 1425 1427 1430 1432 1434 1436 1438 1440 1442 1444 1445 1446 1448 1449 1451 1452 1453 1455 1456 1458 1459 1461